Luxembourg, Luxembourg

8:54 PM CEST on September 15, 2019 (GMT +0200)
Luxembourg

Weather History for ELLX - August, 2019

Change the Weather History Date:

Friday, August 23, 2019

  Actual Average Record
Temperature  
Mean Temperature 70 °F -  
Max Temperature 82 °F 66 °F 84 °F (2011)
Min Temperature 59 °F 50 °F 46 °F (1998)
Cooling Degree Days 6    
Growing Degree Days 20 (Base 50)    
Moisture  
Dew Point 49 °F    
Average Humidity 46    
Maximum Humidity 67    
Minimum Humidity 22    
Precipitation  
Precipitation 0.00 in 0.09 in - ()
Sea Level Pressure  
Sea Level Pressure 30.26 in    
Wind  
Wind Speed 7 mph ()    
Max Wind Speed 12 mph    
Max Gust Speed -    
Visibility 10.5 miles    
Events      
Averages and records for this station are not official NWS values.
T = Trace of Precipitation, MM = Missing Value Source: Averaged Metar Reports

Daily Weather History Graph

Daily Weather History Graph

Search for Another Location

Airport or City:

Astronomy

Aug. 23, 2019 Rise Set
Actual Time 6:36 AM CEST 8:37 PM CEST
Civil Twilight 6:02 AM CEST 9:12 PM CEST
Nautical Twilight 5:19 AM CEST 9:54 PM CEST
Astronomical Twilight 4:31 AM CEST 10:42 PM CEST
Moon No Moon Rise 2:38 PM CEST (8/23)
Length of Visible Light 15h 09m
Length of Day
14h 00m
Waning Gibbous, 52% of the Moon is Illuminated
Aug 23
Waning Gibbous
Aug 23
Last Quarter
Aug 30
New
Sep 6
First Quarter
Sep 14
Full

Hourly Weather History & Observations

Time (CEST) Temp. Dew Point Humidity Pressure Visibility Wind Dir Wind Speed Gust Speed Precip Events Conditions
12:20 AM 62.6 °F 48.2 °F 59% 30.30 in - NNE 4.6 mph - N/A   Clear
12:50 AM 64.4 °F 48.2 °F 56% 30.30 in - NE 4.6 mph - N/A   Clear
1:00 AM 62 °F 49 °F 53% 30.30 in 19 mi NE 4.5 mph - -  
1:20 AM 64.4 °F 48.2 °F 56% 30.30 in 6.2 mi NE 5.8 mph - N/A   Unknown
1:50 AM 62.6 °F 48.2 °F 59% 30.30 in 6.2 mi NNE 5.8 mph - N/A   Unknown
2:00 AM 63 °F 49 °F 50% 30.30 in 31 mi NNE 6.7 mph - -  
2:20 AM 62.6 °F 48.2 °F 59% 30.30 in 6.2 mi NE 5.8 mph - N/A   Unknown
2:50 AM 62.6 °F 48.2 °F 59% 30.30 in 6.2 mi NNE 6.9 mph - N/A   Unknown
3:00 AM 62 °F 49 °F 51% 30.29 in 31 mi NNE 6.7 mph - -  
3:20 AM 60.8 °F 48.2 °F 63% 30.30 in 6.2 mi NNE 6.9 mph - N/A   Unknown
3:50 AM 60.8 °F 48.2 °F 63% 30.30 in 6.2 mi NNE 6.9 mph - N/A   Unknown
4:00 AM 61 °F 48 °F 53% 30.28 in 28 mi NNE 6.7 mph - -  
4:20 AM 60.8 °F 48.2 °F 63% 30.30 in 6.2 mi NE 9.2 mph - N/A   Unknown
4:50 AM 60.8 °F 48.2 °F 63% 30.30 in - NE 6.9 mph - N/A   Clear
5:00 AM 61 °F 49 °F 55% 30.29 in 19 mi NE 8.9 mph - -  
5:20 AM 60.8 °F 48.2 °F 63% 30.30 in - NE 9.2 mph - N/A   Clear
5:50 AM 59.0 °F 48.2 °F 67% 30.30 in - NE 9.2 mph - N/A   Clear
6:20 AM 60.8 °F 48.2 °F 63% 30.30 in - NE 10.4 mph - N/A   Clear
6:50 AM 60.8 °F 48.2 °F 63% 30.30 in - NE 10.4 mph - N/A   Clear
7:00 AM 61 °F 48 °F 52% 30.29 in 19 mi NE 11.2 mph - -  
7:20 AM 60.8 °F 48.2 °F 63% 30.30 in - NE 11.5 mph - N/A   Clear
7:50 AM 62.6 °F 48.2 °F 59% 30.30 in - ENE 9.2 mph - N/A   Clear
8:20 AM 62.6 °F 48.2 °F 59% 30.30 in - ENE 9.2 mph - N/A   Clear
8:50 AM 64.4 °F 48.2 °F 56% 30.30 in - NE 11.5 mph - N/A   Clear
9:20 AM 66.2 °F 50.0 °F 56% 30.30 in - NE 10.4 mph - N/A   Clear
9:50 AM 68.0 °F 50.0 °F 52% 30.30 in - NE 9.2 mph - N/A   Clear
10:00 AM 67 °F 50 °F 44% 30.29 in 22 mi NE 11.2 mph - -   Clear
10:20 AM 69.8 °F 51.8 °F 53% 30.30 in - NE 10.4 mph - N/A   Clear
10:50 AM 71.6 °F 51.8 °F 50% 30.30 in - NE 8.1 mph - N/A   Clear
11:00 AM 71 °F 50 °F 37% 30.28 in 22 mi NE 8.9 mph - -   Clear
11:20 AM 71.6 °F 53.6 °F 53% 30.30 in - East 6.9 mph - N/A   Clear
11:50 AM 73.4 °F 51.8 °F 47% 30.30 in - ESE 6.9 mph - N/A   Clear
12:00 PM 73 °F 53 °F 39% 30.27 in 25 mi ESE 6.7 mph - -   Clear
12:20 PM 75.2 °F 51.8 °F 44% 30.30 in - East 9.2 mph - N/A   Clear
12:50 PM 75.2 °F 51.8 °F 44% 30.27 in - ESE 8.1 mph - N/A   Clear
1:00 PM 76 °F 51 °F 31% 30.24 in 25 mi East 8.9 mph - -   Clear
1:20 PM 77.0 °F 50.0 °F 39% 30.27 in - ESE 9.2 mph - N/A   Clear
1:50 PM 77.0 °F 51.8 °F 41% 30.27 in - Variable 5.8 mph - N/A   Clear
2:00 PM 77 °F 51 °F 29% 30.23 in 25 mi ESE 6.7 mph - -   Clear
2:20 PM 77.0 °F 51.8 °F 41% 30.27 in - Variable 5.8 mph - N/A   Clear
2:50 PM 78.8 °F 51.8 °F 39% 30.24 in - ESE 8.1 mph - N/A   Clear
3:00 PM 79 °F 51 °F 27% 30.21 in 25 mi East 8.9 mph - -   Clear
3:20 PM 78.8 °F 51.8 °F 39% 30.24 in - Variable 5.8 mph - N/A   Clear
3:50 PM 80.6 °F 50.0 °F 34% 30.24 in - ENE 9.2 mph - N/A   Clear
4:00 PM 79 °F 51 °F 27% 30.19 in 25 mi ENE 8.9 mph - -   Clear
4:20 PM 80.6 °F 50.0 °F 34% 30.24 in - Variable 4.6 mph - N/A   Clear
4:50 PM 80.6 °F 50.0 °F 34% 30.24 in - NE 8.1 mph - N/A   Clear
5:20 PM 80.6 °F 50.0 °F 34% 30.21 in - ENE 8.1 mph - N/A   Clear
5:50 PM 80.6 °F 48.2 °F 32% 30.21 in - NE 10.4 mph - N/A   Clear
6:20 PM 80.6 °F 48.2 °F 32% 30.21 in - NE 10.4 mph - N/A   Clear
6:50 PM 80.6 °F 48.2 °F 32% 30.21 in - NE 11.5 mph - N/A   Clear
7:00 PM 80 °F 47 °F 22% 30.16 in 25 mi ENE 11.2 mph - -   Clear
7:20 PM 78.8 °F 46.4 °F 32% 30.21 in - ENE 11.5 mph - N/A   Clear
7:50 PM 77.0 °F 48.2 °F 36% 30.21 in - ENE 8.1 mph - N/A   Clear
8:00 PM 77 °F 47 °F 24% 30.17 in 25 mi ENE 8.9 mph - -   Clear
8:20 PM 73.4 °F 48.2 °F 41% 30.21 in - ENE 6.9 mph - N/A   Clear
8:50 PM 73.4 °F 46.4 °F 38% 30.21 in - ENE 5.8 mph - N/A   Clear
9:00 PM 73 °F 47 °F 28% 30.18 in 25 mi East 6.7 mph - -   Clear
9:20 PM 75.2 °F 46.4 °F 36% 30.21 in - ENE 6.9 mph - N/A   Clear
10:00 PM 72 °F 46 °F 28% 30.19 in 19 mi ENE 6.7 mph - -   Clear
10:20 PM 68.0 °F 48.2 °F 49% 30.21 in - ENE 8.1 mph - N/A   Clear
11:20 PM 68.0 °F 46.4 °F 46% 30.21 in 6.2 mi ENE 6.9 mph - N/A   Unknown
11:50 PM 66.2 °F 46.4 °F 49% 30.21 in - NE 6.9 mph - N/A   Clear